Location: *
(35.8942°N, 23.3025°E)
Time: 12:52:09
(UTC+00:00)

AO-73 - Visible Passes

Search period start: 28 March 2023 00:00
Search period end: 07 April 2023 00:00
Orbit: 573 x 649 km, 97.7° (Epoch: 27 March)

Date Brightness Start Highest point End Pass type
(mag) Time Alt. Az. Time Alt. Az. Time Alt. Az.
28 Mar ? 02:14:45 10° N 02:17:23 36° NNW 02:17:23 36° NNW visible
29 Mar ? 00:55:10 10° ENE 00:55:12 10° ENE 00:55:12 10° ENE visible
29 Mar ? 02:29:26 10° N 02:32:12 32° NW 02:32:12 32° NW visible
30 Mar ? 01:08:45 10° NE 01:10:00 15° ENE 01:10:00 15° ENE visible
30 Mar ? 02:44:15 10° NNW 02:46:59 25° NW 02:46:59 25° NW visible
31 Mar ? 01:22:45 10° NE 01:24:47 22° ENE 01:24:47 22° ENE visible
31 Mar ? 02:59:16 10° NNW 03:01:46 18° WNW 03:01:46 18° WNW visible
01 Apr ? 01:36:57 10° NNE 01:39:33 32° NE 01:39:33 32° NE visible
01 Apr ? 03:14:42 10° NW 03:16:25 12° WNW 03:16:32 12° WNW visible
02 Apr ? 01:51:18 10° NNE 01:54:19 46° NE 01:54:19 46° NE visible
03 Apr ? 02:05:45 10° N 02:09:03 56° N 02:09:03 56° N visible
04 Apr ? 02:20:17 10° N 02:23:48 46° NW 02:23:48 46° NW visible
05 Apr ? 01:00:06 10° NE 01:01:32 14° ENE 01:01:32 14° ENE visible
05 Apr ? 02:34:57 10° N 02:38:31 32° WNW 02:38:31 32° WNW visible
06 Apr ? 01:13:49 10° NE 01:16:14 21° ENE 01:16:14 21° ENE visible
06 Apr ? 02:49:45 10° NNW 02:52:56 22° WNW 02:53:13 22° WNW visible
